Regional Weather Roundup
Issued by NWS

Home | Current Version | Previous Version | Graphics & Text | Print | Product List | Glossary On
Versions: 1 2 3 4 5 6 7 8 9 10 11 12 13 14 15 16 17 18 19 20 21 22 23 24 25 26 27 28 29 30 31 32 33 34 35 36 37 38 39 40 41 42 43 44 45 46 47 48 49 50
000
ASUS43 KLSX 191457
RWRMO

WEATHER SUMMARY FOR MISSOURI
NATIONAL WEATHER SERVICE SPRINGFIELD MO
900 AM CST SUN FEB 19 2017

NOTE: "FAIR" INDICATES FEW OR NO CLOUDS BELOW 12,000 FEET WITH NO
       SIGNIFICANT WEATHER AND/OR OBSTRUCTIONS TO VISIBILITY.
       CURRENT SKY AND/OR WEATHER CONDITIONS ARE NOT AVAILABLE FOR
       CHILLICOTHE AND FARMINGTON.

MOZ001>031-035>038-043-044-053-054-191600-
...NORTHERN AND WESTERN MISSOURI...

CITY           SKY/WX    TMP DP  RH WIND       PRES   REMARKS
KANSAS CTY INT MOSUNNY   55  52  89 S9        29.98R
LEE`S SUMMIT   SUNNY     54  52  93 S10       29.99R
ST JOSEPH      SUNNY     52  49  89 S5        29.97S
CHILLICOTHE      N/A     51  47  86 SE3       30.01R

$$
MOZ066>068-077>081-088>096-101>105-191600-
...SOUTHWEST MISSOURI...

CITY           SKY/WX    TMP DP  RH WIND       PRES   REMARKS
SPRINGFIELD    SUNNY     55  51  86 SE9       30.01S
JOPLIN         MOSUNNY   56  53  90 SE6       29.99R
BRANSON        MOSUNNY   48  48 100 E6        30.03S

$$
MOZ032>034-039>042-045>050-055>058-069>072-191600-
...CENTRAL MISSOURI...

CITY           SKY/WX    TMP DP  RH WIND       PRES   REMARKS
COLUMBIA       NOT AVBL
JEFFERSON CITY FOG       45  44  97 SE7       30.05S VSB 1
ROLLA          SUNNY     52  52 100 SE6       30.04F FOG
SEDALIA        SUNNY     55  50  83 S8        30.03R
WARRENSBURG    SUNNY     48  46  93 SE5       30.00S FOG

$$
MOZ051-052-059>065-191600-
...EAST CENTRAL MISSOURI...

CITY           SKY/WX    TMP DP  RH WIND       PRES   REMARKS
ST LOUIS INTL  NOT AVBL

$$
MOZ072>076-082>087-097>100-106>115-191600-
...SOUTH CENTRAL AND SOUTHEAST MISSOURI...

CITY           SKY/WX    TMP DP  RH WIND       PRES   REMARKS
CAPE GIRARDEAU FOG       51  50  96 CALM      30.10R VSB 1/2
POPLAR BLUFF   FOG       48  48 100 CALM      30.10R VSB 1/4
WEST PLAINS    FOG       49  49 100 CALM      30.07R VSB 1/4

$$


USA.gov is the U.S. government's official web portal to all federal, state and local government web resources and services.